Torrington, WY

12:04 PM MDT on June 22, 2017 (GMT -0600)
Torrington Municipal

Weather History for KTOR - September, 2013

Change the Weather History Date:

Thursday, September 26, 2013

  Actual Average Record
Temperature  
Mean Temperature 59 °F 56 °F  
Max Temperature 73 °F 72 °F 92 °F (2010)
Min Temperature 44 °F 40 °F 29 °F (2000)
Degree Days  
Heating Degree Days 6 9  
Month to date heating degree days 60 132  
Since 1 July heating degree days 62 154  
Cooling Degree Days 0 0  
Month to date cooling degree days 120 44  
Year to date cooling degree days 893 677  
Growing Degree Days 8 (Base 50)    
Moisture  
Dew Point 42 °F    
Average Humidity 60    
Maximum Humidity 89    
Minimum Humidity 31    
Precipitation  
Precipitation 0.00 in 0.06 in 0.01 in (2012)
Month to date precipitation 2.24 1.19  
Year to date precipitation 9.05 12.15  
Sea Level Pressure  
Sea Level Pressure 29.64 in    
Wind  
Wind Speed 10 mph (NNE)    
Max Wind Speed 29 mph    
Max Gust Speed 35 mph    
Visibility 10 miles    
Events      
T = Trace of Precipitation, MM = Missing Value Source: NWS Daily Summary

Daily Weather History Graph

Daily Weather History Graph

Search for Another Location

Airport or City:

Trip Planner

Search our weather history database for the weather conditions in past years. The results will help you decide how hot, cold, wet, or windy it might be!

Date:

Astronomy

Sep. 26, 2013 Rise Set
Actual Time 6:48 AM MDT 6:46 PM MDT
Civil Twilight 6:20 AM MDT 7:14 PM MDT
Nautical Twilight 5:48 AM MDT 7:46 PM MDT
Astronomical Twilight 5:15 AM MDT 8:19 PM MDT
Moon 11:41 PM MDT (9/26) 1:47 PM MDT (9/26)
Length of Visible Light 12h 53m
Length of Day
11h 57m
Waning Gibbous, 54% of the Moon is Illuminated
Sep 26
Waning Gibbous
Sep 26
Last Quarter
Oct 4
New
Oct 11
First Quarter
Oct 18
Full

Hourly Weather History & Observations

Time (MDT) Temp. Windchill Dew Point Humidity Pressure Visibility Wind Dir Wind Speed Gust Speed Precip Events Conditions
12:53 AM 53.1 °F - 43.0 °F 69% 29.51 in 10.0 mi NNW 15.0 mph - N/A   Clear
1:53 AM 50.0 °F - 43.0 °F 77% 29.56 in 10.0 mi WNW 8.1 mph - N/A   Clear
2:53 AM 48.9 °F - 43.0 °F 80% 29.57 in 10.0 mi WNW 3.5 mph - N/A   Clear
3:53 AM 48.0 °F - 42.1 °F 80% 29.59 in 10.0 mi WNW 10.4 mph - N/A   Clear
4:53 AM 46.9 °F - 42.1 °F 83% 29.62 in 10.0 mi Calm Calm - N/A   Clear
5:53 AM 44.1 °F 39.5 °F 41.0 °F 89% 29.65 in 10.0 mi WNW 8.1 mph - N/A   Clear
6:53 AM 44.1 °F 38.6 °F 39.9 °F 85% 29.67 in 10.0 mi WNW 10.4 mph - N/A   Clear
7:53 AM 46.0 °F 41.4 °F 39.9 °F 79% 29.68 in 10.0 mi NW 9.2 mph - N/A   Clear
8:53 AM 53.1 °F - 41.0 °F 64% 29.68 in 10.0 mi WNW 9.2 mph - N/A   Clear
9:53 AM 59.0 °F - 42.1 °F 53% 29.68 in 10.0 mi WNW 8.1 mph - N/A   Clear
10:53 AM 62.1 °F - 41.0 °F 46% 29.68 in 10.0 mi North 6.9 mph - N/A   Clear
11:53 AM 64.9 °F - 41.0 °F 42% 29.68 in 10.0 mi Calm Calm - N/A   Clear
12:53 PM 68.0 °F - 41.0 °F 37% 29.65 in 10.0 mi ENE 3.5 mph - N/A   Clear
1:53 PM 71.1 °F - 39.9 °F 32% 29.64 in 10.0 mi ENE 10.4 mph - N/A   Clear
2:53 PM 72.0 °F - 39.9 °F 31% 29.62 in 10.0 mi East 9.2 mph - N/A   Unknown
3:53 PM 72.0 °F - 41.0 °F 33% 29.62 in 10.0 mi East 10.4 mph - N/A   Clear
4:53 PM 73.0 °F - 41.0 °F 31% 29.62 in 10.0 mi East 12.7 mph 23.0 mph N/A   Clear
5:53 PM 69.1 °F - 44.1 °F 40% 29.65 in 10.0 mi East 18.4 mph - N/A   Clear
6:53 PM 64.9 °F - 46.9 °F 52% 29.67 in 10.0 mi ENE 12.7 mph - N/A   Overcast
7:53 PM 64.0 °F - 48.0 °F 56% 29.69 in 10.0 mi ENE 12.7 mph - N/A   Overcast
8:53 PM 61.0 °F - 46.0 °F 58% 29.67 in 10.0 mi ENE 20.7 mph 31.1 mph N/A   Scattered Clouds
9:53 PM 55.9 °F - 45.0 °F 67% 29.65 in 10.0 mi ENE 18.4 mph - N/A   Clear
10:53 PM 54.0 °F - 43.0 °F 66% 29.66 in 10.0 mi NE 20.7 mph 27.6 mph N/A   Clear
11:53 PM 52.0 °F - 42.1 °F 69% 29.70 in 10.0 mi Variable 4.6 mph - N/A   Overcast